Hourly Data Report for October 13, 2013

All times are specified in Local Standard Time (LST). Add 1 hour to adjust for Daylight Saving Time where and when it is observed.

GRISE FIORD CLIMATE
NUNAVUT

76°25'22.040" N
82°54'08.020" W
44.50 m
2402351
71971
NGC

Download Data

Hourly Data (October 2013)
Hourly Data Report for October 13, 2013
Temp Definition
°C
Dew Point Temp Definition
°C
Rel Hum Definition
%
Wind Dir Definition
10's deg

Wind Spd Definition
km/h
Visibility Definition
km
Stn Press Definition
kPa
Hmdx Definition


Wind Chill Definition


Weather Definition


TIME
00:00 -10.0 -18.8 49 3 6   101.12   -14 LegendNANA
01:00 -10.7 -17.9 55 5 7   101.17   -15 LegendNANA
02:00 -10.8 -15.3 69   0   101.24     LegendNANA
03:00 -11.0 -16.0 67 4 6   101.27   -15 LegendNANA
04:00 -10.4 -16.0 63 3 4   101.30   -13 LegendNANA
05:00 -9.9 -13.8 73 13 2   101.32   -11 LegendNANA
06:00 -10.0 -14.6 69 4 4   101.35   -12 LegendNANA
07:00 -9.5 -15.2 63 3 6   101.39   -13 LegendNANA
08:00 -9.5 -14.3 68 36 6   101.41   -13 LegendNANA
09:00 -9.2 -13.7 70 4 4   101.42   -11 LegendNANA
10:00 -9.3 -13.8 70 8 2   101.44   -10 LegendNANA
11:00 -8.6 -14.2 64 7 2   101.46   -10 LegendNANA
12:00 -5.1 -17.9 36 9 15   101.46   -11 LegendNANA
13:00 -4.2 -18.2 33 8 9   101.47   -8 LegendNANA
14:00 -4.2 -14.1 46 6 20   101.48   -11 LegendNANA
15:00 -4.2 -10.4 62 7 22   101.51   -11 LegendNANA
16:00 -3.8 -9.3 66 10 22   101.50   -10 LegendNANA
17:00 -3.7 -9.0 67 9 19   101.50   -10 LegendNANA
18:00 -5.2 -8.5 78 13 11   101.50   -10 LegendNANA
19:00 -5.5 -7.8 84 13 7   101.50   -9 LegendNANA
20:00 -5.3 -7.9 82 15 7   101.48   -9 LegendNANA
21:00 -5.3 -7.9 82 12 4   101.51   -7 LegendNANA
22:00 -6.2 -7.8 88 6 4   101.52   -8 LegendNANA
23:00 -6.0 -8.7 81 2 7   101.50   -9 LegendNANA

Notes on Data Quality.

Legend

  • E = Estimated
  • M = Missing
  • NA = Not Available
  • ‡ = Partner data that is not subject to review by the National Climate Archives
Date modified: